This demonstration page uses our WeatherBlox Daily Observations layout. Learn more.

Left ArrowRight Arrow

39.08367, -84.50855

Hourly Observations for March 22, 2015

Temp ( °F °C ) Dew Point ( °F °C ) Humidity (%) Winds ( mph kmh ) Pressure ( in mb ) Visibility ( mi km ) Precip ( " mm )
12:53 am 00:53 Clear 46 7.8 30 -1.1 54 54 N 12 19 30.18 1022 10 16.0934 N/A
1:53 am 01:53 Clear 43 6.1 26 -3.3 51 51 NNE 6 9 30.19 1023 10 16.0934 N/A
2:53 am 02:53 Clear 41 5 20 -6.7 43 43 NNE 7 11 30.19 1022 10 16.0934 N/A
3:53 am 03:53 Clear 40 4.4 22 -5.6 49 49 NNE 5 7 30.19 1022 10 16.0934 N/A
4:53 am 04:53 Clear 38 3.3 21 -6.1 51 51 N 5 7 30.19 1022 10 16.0934 N/A
5:53 am 05:53 Clear 38 3.3 21 -6.1 51 51 NNE 3 6 30.19 1022 10 16.0934 N/A
6:53 am 06:53 Clear 36 2.2 22 -5.6 57 57 NNE 7 11 30.2 1023 10 16.0934 N/A
7:53 am 07:53 Sunny 35 1.7 26 -3.3 70 70 NE 8 13 30.22 1023 10 16.0934 N/A
8:53 am 08:53 Sunny 37 2.8 29 -1.7 73 73 ENE 9 15 30.24 1024 10 16.0934 N/A
9:53 am 09:53 Sunny 39 3.9 30 -1.1 70 70 NE 9 15 30.25 1024 10 16.0934 N/A
10:53 am 10:53 Sunny 42 5.6 25 -3.9 51 51 ENE 8 13 30.24 1024 10 16.0934 N/A
11:53 am 11:53 Sunny 46 7.8 25 -3.9 44 44 ENE 9 15 30.24 1024 10 16.0934 N/A
12:53 pm 12:53 Sunny 45 7.2 27 -2.8 49 49 NE 10 17 30.22 1023 10 16.0934 N/A
1:53 pm 13:53 Sunny 48 8.9 22 -5.6 36 36 ENE 10 17 30.21 1023 10 16.0934 N/A
2:53 pm 14:53 Sunny 50 10 22 -5.6 33 33 E 8 13 30.19 1023 10 16.0934 N/A
3:53 pm 15:53 Sunny 50 10 21 -6.1 32 32 NE 13 20 30.16 1022 10 16.0934 N/A
4:53 pm 16:53 Sunny 51 10.6 21 -6.1 31 31 E 9 15 30.15 1021 10 16.0934 N/A
5:53 pm 17:53 Sunny 50 10 21 -6.1 32 32 E 8 13 30.16 1021 10 16.0934 N/A
6:53 pm 18:53 Sunny 48 8.9 21 -6.1 34 34 NE 12 19 30.16 1021 10 16.0934 N/A
7:53 pm 19:53 Clear 45 7.2 23 -5 42 42 NE 7 11 30.16 1022 10 16.0934 N/A
8:53 pm 20:53 Clear 44 6.7 21 -6.1 40 40 ENE 13 20 30.17 1022 10 16.0934 N/A
9:53 pm 21:53 Clear 41 5 22 -5.6 47 47 NE 8 13 30.19 1023 10 16.0934 N/A
10:53 pm 22:53 Clear 40 4.4 18 -7.8 41 41 NE 12 19 30.19 1022 10 16.0934 N/A
11:53 pm 23:53 Mostly Cloudy 38 3.3 20 -6.7 48 48 NE 12 19 30.19 1023 10 16.0934 N/A

Powered by AerisWeather